When you browse on this site, cookies collect data to enhance your experience and personalize the content and advertising you see.
Visit our Privacy Policy to learn more. By continuing to use the site, you agree to this use of cookies and data.
  • In Sweden
  • List of Countries
  • For 7 days
  • Water Temperature
  • Satellite Maps
  • Weather Map
  • Weather Widgets
  • user-avatar
    Login

    Hourly Weather Chernoe

    Today, 23 April, Tuesday

    Time Temperature Precipitation Wind Pressure Humidity
    00:00 +7°C° 0 mm 1 mps 755 mmHg 47%
    01:00 +6°C° 0 mm 1 mps 755 mmHg 48%
    02:00 +6°C° 0 mm 1 mps 755 mmHg 49%
    03:00 +5°C° 0 mm 1 mps 755 mmHg 50%
    04:00 +5°C° 0 mm 1 mps 755 mmHg 51%
    05:00 +5°C° 0 mm 1 mps 754 mmHg 50%
    06:00 +5°C° 0 mm 2 mps 754 mmHg 45%
    07:00 +7°C° 0 mm 2 mps 754 mmHg 41%
    08:00 +9°C° 0 mm 2 mps 754 mmHg 36%
    09:00 +10°C° 0 mm 2 mps 753 mmHg 34%
    10:00 +11°C° 0 mm 3 mps 753 mmHg 32%
    11:00 +11°C° 0 mm 3 mps 753 mmHg 30%
    12:00 +12°C° 0 mm 3 mps 753 mmHg 30%
    13:00 +12°C° 0 mm 3 mps 752 mmHg 31%
    14:00 +12°C° 0 mm 4 mps 752 mmHg 31%
    15:00 +12°C° 0.1 mm 3 mps 752 mmHg 34%
    16:00 +12°C° 0.1 mm 3 mps 751 mmHg 36%
    17:00 +12°C° 0.1 mm 3 mps 751 mmHg 39%
    18:00 +12°C° 0.4 mm 2 mps 751 mmHg 47%
    19:00 +10°C° 0.4 mm 2 mps 751 mmHg 56%
    20:00 +9°C° 0.4 mm 1 mps 751 mmHg 64%
    21:00 +9°C° 0 mm 1 mps 751 mmHg 68%
    22:00 +8°C° 0 mm 1 mps 751 mmHg 72%
    23:00 +7°C° 0 mm 1 mps 751 mmHg 76%

    Tomorrow, 24 April, Wednesday

    Time Temperature Precipitation Wind Pressure Humidity
    00:00 +7°C° 0 mm 1 mps 751 mmHg 75%
    01:00 +7°C° 0 mm 1 mps 751 mmHg 73%
    02:00 +6°C° 0 mm 2 mps 751 mmHg 72%
    03:00 +5°C° 0 mm 2 mps 751 mmHg 70%
    04:00 +5°C° 0 mm 2 mps 751 mmHg 67%
    05:00 +5°C° 0 mm 2 mps 750 mmHg 65%
    06:00 +7°C° 0 mm 3 mps 751 mmHg 59%
    07:00 +8°C° 0 mm 3 mps 751 mmHg 54%
    08:00 +10°C° 0 mm 3 mps 751 mmHg 49%
    09:00 +12°C° 0 mm 4 mps 750 mmHg 45%
    10:00 +13°C° 0 mm 4 mps 750 mmHg 41%
    11:00 +14°C° 0 mm 4 mps 750 mmHg 37%
    12:00 +15°C° 0 mm 4 mps 750 mmHg 35%
    13:00 +17°C° 0 mm 4 mps 749 mmHg 34%
    14:00 +17°C° 0 mm 4 mps 749 mmHg 32%
    15:00 +17°C° 0 mm 4 mps 749 mmHg 33%
    16:00 +17°C° 0 mm 3 mps 748 mmHg 33%
    17:00 +17°C° 0 mm 3 mps 748 mmHg 33%
    18:00 +16°C° 0 mm 3 mps 748 mmHg 36%
    19:00 +14°C° 0 mm 2 mps 748 mmHg 39%
    20:00 +13°C° 0 mm 2 mps 747 mmHg 42%
    21:00 +13°C° 0 mm 2 mps 747 mmHg 42%
    22:00 +12°C° 0 mm 3 mps 747 mmHg 41%
    23:00 +12°C° 0 mm 3 mps 747 mmHg 41%

    Day after tomorrow, 25 April, Thursday

    Time Temperature Precipitation Wind Pressure Humidity
    00:00 +12°C° 0 mm 3 mps 746 mmHg 42%
    01:00 +11°C° 0 mm 3 mps 746 mmHg 43%
    02:00 +11°C° 0 mm 4 mps 745 mmHg 44%
    03:00 +10°C° 0 mm 4 mps 745 mmHg 46%
    04:00 +10°C° 0 mm 4 mps 745 mmHg 48%
    05:00 +10°C° 0 mm 4 mps 745 mmHg 50%
    06:00 +11°C° 0 mm 4 mps 745 mmHg 47%
    07:00 +12°C° 0 mm 5 mps 745 mmHg 45%
    08:00 +13°C° 0 mm 6 mps 745 mmHg 43%
    09:00 +14°C° 0 mm 6 mps 745 mmHg 40%
    10:00 +15°C° 0 mm 7 mps 746 mmHg 37%
    11:00 +16°C° 0 mm 8 mps 746 mmHg 35%
    12:00 +16°C° 0 mm 8 mps 745 mmHg 36%
    13:00 +16°C° 0 mm 9 mps 745 mmHg 37%
    14:00 +16°C° 0 mm 9 mps 745 mmHg 38%
    15:00 +16°C° 0 mm 9 mps 745 mmHg 38%
    16:00 +16°C° 0 mm 8 mps 745 mmHg 38%
    17:00 +16°C° 0 mm 8 mps 745 mmHg 39%
    18:00 +14°C° 0 mm 7 mps 746 mmHg 43%
    19:00 +13°C° 0 mm 5 mps 746 mmHg 47%
    20:00 +12°C° 0 mm 4 mps 746 mmHg 51%
    21:00 +12°C° 0.1 mm 5 mps 746 mmHg 51%
    22:00 +12°C° 0.1 mm 5 mps 745 mmHg 50%
    23:00 +11°C° 0.1 mm 6 mps 745 mmHg 50%

    26 April, Friday

    Time Temperature Precipitation Wind Pressure Humidity
    00:00 +10°C° 0 mm 6 mps 745 mmHg 53%
    01:00 +10°C° 0 mm 7 mps 745 mmHg 55%
    02:00 +10°C° 0 mm 7 mps 745 mmHg 58%
    03:00 +9°C° 0 mm 7 mps 745 mmHg 62%
    04:00 +9°C° 0 mm 7 mps 745 mmHg 67%
    05:00 +8°C° 0 mm 7 mps 745 mmHg 71%
    06:00 +8°C° 0.2 mm 6 mps 745 mmHg 71%
    07:00 +8°C° 0.2 mm 6 mps 745 mmHg 70%
    08:00 +8°C° 0.2 mm 6 mps 745 mmHg 70%
    09:00 +9°C° 0.2 mm 5 mps 745 mmHg 67%
    10:00 +9°C° 0.2 mm 5 mps 746 mmHg 65%
    11:00 +9°C° 0.2 mm 5 mps 746 mmHg 62%
    12:00 +9°C° 0.1 mm 5 mps 746 mmHg 60%
    13:00 +10°C° 0.1 mm 6 mps 746 mmHg 57%
    14:00 +10°C° 0.1 mm 7 mps 746 mmHg 54%
    15:00 +9°C° 0.1 mm 7 mps 746 mmHg 55%
    16:00 +8°C° 0.1 mm 7 mps 747 mmHg 56%
    17:00 +8°C° 0.1 mm 7 mps 747 mmHg 57%
    18:00 +5°C° 0 mm 6 mps 748 mmHg 59%
    19:00 +5°C° 0 mm 5 mps 749 mmHg 62%
    20:00 +4°C° 0 mm 4 mps 750 mmHg 64%
    21:00 +4°C° 0 mm 3 mps 750 mmHg 65%
    22:00 +4°C° 0 mm 2 mps 750 mmHg 65%
    23:00 +4°C° 0 mm 1 mps 751 mmHg 66%

    27 April, Saturday

    Time Temperature Precipitation Wind Pressure Humidity
    00:00 +3°C° 0 mm 2 mps 750 mmHg 67%
    01:00 +3°C° 0 mm 2 mps 750 mmHg 68%
    02:00 +3°C° 0 mm 2 mps 749 mmHg 68%
    03:00 +3°C° 0 mm 2 mps 749 mmHg 69%
    04:00 +2°C° 0 mm 2 mps 748 mmHg 71%
    05:00 +1°C° 0 mm 3 mps 748 mmHg 72%
    06:00 +3°C° 0.1 mm 2 mps 748 mmHg 68%
    07:00 +4°C° 0.1 mm 2 mps 747 mmHg 64%
    08:00 +5°C° 0.1 mm 2 mps 747 mmHg 60%
    09:00 +6°C° 0.1 mm 2 mps 747 mmHg 57%
    10:00 +7°C° 0.1 mm 3 mps 747 mmHg 53%
    11:00 +8°C° 0.1 mm 3 mps 747 mmHg 50%
    12:00 +7°C° 0.1 mm 5 mps 747 mmHg 49%
    13:00 +7°C° 0.1 mm 8 mps 748 mmHg 48%
    14:00 +8°C° 0.1 mm 10 mps 748 mmHg 46%
    15:00 +7°C° 0 mm 10 mps 749 mmHg 43%
    16:00 +6°C° 0 mm 10 mps 750 mmHg 40%
    17:00 +5°C° 0 mm 9 mps 751 mmHg 36%
    18:00 +4°C° 0 mm 8 mps 752 mmHg 39%
    19:00 +2°C° 0 mm 6 mps 753 mmHg 42%
    20:00 +1°C° 0 mm 4 mps 754 mmHg 45%
    21:00 +1°C° 0 mm 4 mps 755 mmHg 47%
    22:00 +1°C° 0 mm 3 mps 756 mmHg 50%
    23:00 +1°C° 0 mm 2 mps 756 mmHg 52%

    28 April, Sunday

    Time Temperature Precipitation Wind Pressure Humidity
    00:00 +1°C° 0 mm 2 mps 757 mmHg 53%
    01:00 +1°C° 0 mm 2 mps 757 mmHg 54%
    02:00 -1°C° 0 mm 2 mps 757 mmHg 56%
    03:00 -1°C° 0 mm 3 mps 758 mmHg 56%
    04:00 -1°C° 0 mm 3 mps 758 mmHg 56%
    05:00 -2°C° 0 mm 4 mps 758 mmHg 57%
    06:00 0°C° 0 mm 5 mps 758 mmHg 50%
    07:00 +2°C° 0 mm 6 mps 757 mmHg 43%
    08:00 +4°C° 0 mm 7 mps 757 mmHg 37%
    09:00 +6°C° 0 mm 7 mps 757 mmHg 34%
    10:00 +8°C° 0 mm 7 mps 756 mmHg 31%
    11:00 +10°C° 0 mm 7 mps 756 mmHg 29%
    12:00 +11°C° 0 mm 7 mps 755 mmHg 28%
    13:00 +12°C° 0 mm 7 mps 754 mmHg 28%
    14:00 +14°C° 0 mm 7 mps 753 mmHg 27%
    15:00 +14°C° 0 mm 7 mps 753 mmHg 29%
    16:00 +14°C° 0 mm 7 mps 752 mmHg 30%
    17:00 +15°C° 0 mm 7 mps 751 mmHg 31%
    18:00 +14°C° 0 mm 7 mps 751 mmHg 36%
    19:00 +11°C° 0 mm 6 mps 751 mmHg 40%
    20:00 +10°C° 0 mm 5 mps 751 mmHg 45%
    21:00 +10°C° 0 mm 6 mps 750 mmHg 46%
    22:00 +10°C° 0 mm 7 mps 750 mmHg 46%
    23:00 +10°C° 0 mm 7 mps 749 mmHg 46%
    Show more